| time (UTC) | temp F | wind direction | speed MPH | gust MPH | rain 1hr in | rain 24hr in | rain mn in | humidity % | barometer mb |
| 20260507193002 | 57 | 264 | 8.0 | 17.0 | 0.00 | 0.00 | 0.00 | 41 | 1010.6 |
| 20260507192813 | 57 | 269 | 8.0 | 17.0 | 0.00 | 0.00 | 0.00 | 41 | 1010.6 |
| 20260507192522 | 57 | 272 | 8.0 | 17.0 | 0.00 | 0.00 | 0.00 | 41 | 1010.6 |
| 20260507192313 | 57 | 271 | 8.0 | 18.0 | 0.00 | 0.00 | 0.00 | 41 | 1010.6 |
| 20260507192024 | 57 | 269 | 8.0 | 18.0 | 0.00 | 0.00 | 0.00 | 41 | 1010.6 |
| 20260507191813 | 57 | 265 | 8.0 | 18.0 | 0.00 | 0.00 | 0.00 | 42 | 1010.7 |
| 20260507191502 | 57 | 261 | 7.0 | 18.0 | 0.00 | 0.00 | 0.00 | 42 | 1010.7 |
| 20260507191313 | 57 | 259 | 7.0 | 15.0 | 0.00 | 0.00 | 0.00 | 41 | 1010.8 |
| 20260507191001 | 57 | 255 | 7.0 | 15.0 | 0.00 | 0.00 | 0.00 | 42 | 1010.8 |
| 20260507190813 | 57 | 262 | 8.0 | 17.0 | 0.00 | 0.00 | 0.00 | 42 | 1010.8 |
| 20260507190503 | 57 | 273 | 8.0 | 17.0 | 0.00 | 0.00 | 0.00 | 44 | 1010.9 |
| 20260507190313 | 57 | 275 | 9.0 | 17.0 | 0.00 | 0.00 | 0.00 | 42 | 1010.9 |
| 20260507190022 | 57 | 276 | 10.0 | 22.0 | 0.00 | 0.00 | 0.00 | 42 | 1010.8 |
| 20260507185813 | 57 | 273 | 9.0 | 22.0 | 0.00 | 0.00 | 0.00 | 41 | 1010.8 |
| 20260507185502 | 57 | 268 | 9.0 | 22.0 | 0.00 | 0.00 | 0.00 | 42 | 1010.9 |
| 20260507185313 | 57 | 259 | 7.0 | 22.0 | 0.00 | 0.00 | 0.00 | 42 | 1010.9 |
| 20260507185002 | 57 | 249 | 6.0 | 12.0 | 0.00 | 0.00 | 0.00 | 42 | 1010.9 |
| 20260507184813 | 57 | 251 | 7.0 | 19.0 | 0.00 | 0.00 | 0.00 | 43 | 1010.9 |
| 20260507184502 | 57 | 260 | 8.0 | 19.0 | 0.00 | 0.00 | 0.00 | 42 | 1010.9 |
| 20260507184312 | 57 | 270 | 9.0 | 19.0 | 0.00 | 0.00 | 0.00 | 42 | 1010.9 |
| 20260507184022 | 57 | 280 | 10.0 | 19.0 | 0.00 | 0.00 | 0.00 | 42 | 1010.9 |
| 20260507183812 | 57 | 285 | 8.0 | 19.0 | 0.00 | 0.00 | 0.00 | 43 | 1010.9 |
| 20260507183502 | 58 | 283 | 8.0 | 16.0 | 0.00 | 0.00 | 0.00 | 42 | 1010.9 |
| 20260507183312 | 58 | 280 | 8.0 | 16.0 | 0.00 | 0.00 | 0.00 | 42 | 1010.9 |
| 20260507183002 | 58 | 276 | 8.0 | 14.0 | 0.00 | 0.00 | 0.00 | 43 | 1010.9 |
| 20260507182812 | 58 | 277 | 9.0 | 15.0 | 0.00 | 0.00 | 0.00 | 43 | 1010.8 |
| 20260507182501 | 57 | 274 | 9.0 | 15.0 | 0.00 | 0.00 | 0.00 | 43 | 1011.0 |
| 20260507182312 | 58 | 275 | 9.0 | 15.0 | 0.00 | 0.00 | 0.00 | 43 | 1011.0 |
| 20260507182002 | 58 | 283 | 9.0 | 17.0 | 0.00 | 0.00 | 0.00 | 43 | 1011.0 |
| 20260507181812 | 58 | 283 | 10.0 | 17.0 | 0.00 | 0.00 | 0.00 | 43 | 1010.9 |
| 20260507181502 | 58 | 284 | 10.0 | 17.0 | 0.00 | 0.00 | 0.00 | 43 | 1011.0 |
| 20260507181312 | 58 | 283 | 8.0 | 17.0 | 0.00 | 0.00 | 0.00 | 43 | 1010.9 |
| 20260507181001 | 57 | 266 | 7.0 | 15.0 | 0.00 | 0.00 | 0.00 | 44 | 1011.0 |
| 20260507180812 | 57 | 262 | 7.0 | 15.0 | 0.00 | 0.00 | 0.00 | 46 | 1010.9 |
| 20260507180502 | 56 | 268 | 7.0 | 15.0 | 0.00 | 0.00 | 0.00 | 44 | 1010.9 |
| 20260507180312 | 56 | 270 | 9.0 | 15.0 | 0.00 | 0.00 | 0.00 | 44 | 1011.0 |
| 20260507180002 | 57 | 276 | 9.0 | 16.0 | 0.00 | 0.00 | 0.00 | 43 | 1011.0 |
| 20260507175812 | 57 | 275 | 9.0 | 16.0 | 0.00 | 0.00 | 0.00 | 43 | 1010.9 |
| 20260507175522 | 57 | 269 | 8.0 | 16.0 | 0.00 | 0.00 | 0.00 | 43 | 1011.0 |
| 20260507175312 | 57 | 268 | 9.0 | 17.0 | 0.00 | 0.00 | 0.00 | 44 | 1011.0 |
| 20260507175002 | 57 | 270 | 9.0 | 18.0 | 0.00 | 0.00 | 0.00 | 45 | 1011.0 |
| 20260507174812 | 57 | 271 | 10.0 | 18.0 | 0.00 | 0.00 | 0.00 | 45 | 1011.1 |
| 20260507174502 | 57 | 274 | 10.0 | 18.0 | 0.00 | 0.00 | 0.00 | 45 | 1011.1 |
| 20260507174311 | 57 | 276 | 9.0 | 18.0 | 0.00 | 0.00 | 0.00 | 46 | 1011.0 |
| 20260507174001 | 57 | 275 | 8.0 | 17.0 | 0.00 | 0.00 | 0.00 | 45 | 1011.1 |
| 20260507173811 | 57 | 270 | 7.0 | 13.0 | 0.00 | 0.00 | 0.00 | 45 | 1011.0 |
| 20260507173502 | 57 | 270 | 7.0 | 15.0 | 0.00 | 0.00 | 0.00 | 45 | 1011.0 |
| 20260507173311 | 57 | 263 | 7.0 | 15.0 | 0.00 | 0.00 | 0.00 | 45 | 1011.1 |
| 20260507173002 | 57 | 259 | 7.0 | 15.0 | 0.00 | 0.00 | 0.00 | 45 | 1011.0 |
| 20260507172811 | 57 | 260 | 6.0 | 15.0 | 0.00 | 0.00 | 0.00 | 44 | 1011.1 |
| 20260507172524 | 57 | 258 | 6.0 | 16.0 | 0.00 | 0.00 | 0.00 | 44 | 1011.1 |
| 20260507172311 | 57 | 266 | 7.0 | 16.0 | 0.00 | 0.00 | 0.00 | 43 | 1011.1 |
| 20260507172003 | 57 | 270 | 8.0 | 16.0 | 0.00 | 0.00 | 0.00 | 44 | 1011.1 |
| 20260507171811 | 57 | 274 | 8.0 | 16.0 | 0.00 | 0.00 | 0.00 | 44 | 1011.1 |
| 20260507171502 | 57 | 276 | 8.0 | 13.0 | 0.00 | 0.00 | 0.00 | 44 | 1011.2 |
| 20260507171311 | 57 | 278 | 7.0 | 13.0 | 0.00 | 0.00 | 0.00 | 44 | 1011.1 |
| 20260507171002 | 57 | 281 | 7.0 | 13.0 | 0.00 | 0.00 | 0.00 | 43 | 1011.1 |
| 20260507170811 | 57 | 277 | 7.0 | 12.0 | 0.00 | 0.00 | 0.00 | 43 | 1011.1 |
| 20260507170502 | 57 | 281 | 7.0 | 16.0 | 0.00 | 0.00 | 0.00 | 43 | 1011.2 |
| 20260507170311 | 57 | 277 | 7.0 | 16.0 | 0.00 | 0.00 | 0.00 | 42 | 1011.1 |
| 20260507170022 | 57 | 274 | 8.0 | 16.0 | 0.00 | 0.00 | 0.00 | 43 | 1011.2 |
| 20260507165811 | 57 | 273 | 7.0 | 16.0 | 0.00 | 0.00 | 0.00 | 43 | 1011.2 |
| 20260507165523 | 57 | 265 | 6.0 | 13.0 | 0.00 | 0.00 | 0.00 | 43 | 1011.2 |
| 20260507165311 | 57 | 265 | 5.0 | 13.0 | 0.00 | 0.00 | 0.00 | 43 | 1011.3 |
| 20260507165002 | 57 | 254 | 5.0 | 13.0 | 0.00 | 0.00 | 0.00 | 44 | 1011.3 |
| 20260507164811 | 57 | 258 | 6.0 | 14.0 | 0.00 | 0.00 | 0.00 | 43 | 1011.3 |
| 20260507164502 | 57 | 264 | 6.0 | 14.0 | 0.00 | 0.00 | 0.00 | 44 | 1011.3 |
| 20260507164311 | 57 | 269 | 6.0 | 14.0 | 0.00 | 0.00 | 0.00 | 43 | 1011.3 |
| 20260507164002 | 57 | 278 | 6.0 | 14.0 | 0.00 | 0.00 | 0.00 | 43 | 1011.4 |
| 20260507163810 | 57 | 279 | 5.0 | 11.0 | 0.00 | 0.00 | 0.00 | 43 | 1011.2 |
| 20260507163502 | 57 | 270 | 5.0 | 10.0 | 0.00 | 0.00 | 0.00 | 43 | 1011.3 |
| 20260507163310 | 57 | 261 | 5.0 | 10.0 | 0.00 | 0.00 | 0.00 | 44 | 1011.4 |
| 20260507163002 | 56 | 244 | 4.0 | 10.0 | 0.00 | 0.00 | 0.00 | 46 | 1011.4 |
| 20260507162810 | 56 | 248 | 5.0 | 14.0 | 0.00 | 0.00 | 0.00 | 46 | 1011.5 |
| 20260507162523 | 56 | 246 | 5.0 | 14.0 | 0.00 | 0.00 | 0.00 | 46 | 1011.4 |
| 20260507162310 | 56 | 252 | 6.0 | 14.0 | 0.00 | 0.00 | 0.00 | 45 | 1011.4 |
| 20260507162002 | 57 | 261 | 7.0 | 14.0 | 0.00 | 0.00 | 0.00 | 44 | 1011.4 |
| 20260507161810 | 57 | 259 | 6.0 | 14.0 | 0.00 | 0.00 | 0.00 | 44 | 1011.4 |
| 20260507161522 | 57 | 264 | 6.0 | 14.0 | 0.00 | 0.00 | 0.00 | 45 | 1011.3 |
| 20260507161310 | 56 | 269 | 6.0 | 14.0 | 0.00 | 0.00 | 0.00 | 45 | 1011.4 |
| 20260507161002 | 56 | 280 | 6.0 | 14.0 | 0.00 | 0.00 | 0.00 | 46 | 1011.5 |
| 20260507160810 | 56 | 290 | 6.0 | 12.0 | 0.00 | 0.00 | 0.00 | 46 | 1011.4 |
| 20260507160502 | 56 | 289 | 6.0 | 11.0 | 0.00 | 0.00 | 0.00 | 45 | 1011.4 |
| 20260507160310 | 56 | 279 | 6.0 | 11.0 | 0.00 | 0.00 | 0.00 | 45 | 1011.4 |
| 20260507160001 | 56 | 251 | 5.0 | 11.0 | 0.00 | 0.00 | 0.00 | 45 | 1011.4 |
| 20260507155810 | 56 | 231 | 5.0 | 11.0 | 0.00 | 0.00 | 0.00 | 46 | 1011.4 |
| 20260507155502 | 56 | 221 | 5.0 | 12.0 | 0.00 | 0.00 | 0.00 | 45 | 1011.4 |
| 20260507155310 | 56 | 228 | 5.0 | 12.0 | 0.00 | 0.00 | 0.00 | 45 | 1011.5 |
| 20260507155002 | 56 | 247 | 5.0 | 12.0 | 0.00 | 0.00 | 0.00 | 45 | 1011.6 |
| 20260507154810 | 56 | 253 | 5.0 | 12.0 | 0.00 | 0.00 | 0.00 | 46 | 1011.5 |
| 20260507154502 | 56 | 263 | 5.0 | 13.0 | 0.00 | 0.00 | 0.00 | 45 | 1011.5 |
| 20260507154310 | 56 | 266 | 6.0 | 13.0 | 0.00 | 0.00 | 0.00 | 45 | 1011.5 |
| 20260507154002 | 56 | 260 | 6.0 | 13.0 | 0.00 | 0.00 | 0.00 | 46 | 1011.4 |
| 20260507153810 | 56 | 265 | 6.0 | 13.0 | 0.00 | 0.00 | 0.00 | 45 | 1011.5 |
| 20260507153502 | 56 | 271 | 6.0 | 11.0 | 0.00 | 0.00 | 0.00 | 45 | 1011.5 |
| 20260507153309 | 56 | 274 | 6.0 | 11.0 | 0.00 | 0.00 | 0.00 | 47 | 1011.5 |
| 20260507153002 | 56 | 276 | 7.0 | 12.0 | 0.00 | 0.00 | 0.00 | 46 | 1011.5 |
| 20260507152809 | 56 | 277 | 7.0 | 15.0 | 0.00 | 0.00 | 0.00 | 50 | 1011.4 |
| 20260507152501 | 56 | 272 | 8.0 | 15.0 | 0.00 | 0.00 | 0.00 | 50 | 1011.5 |
| 20260507152309 | 56 | 272 | 8.0 | 15.0 | 0.00 | 0.00 | 0.00 | 49 | 1011.5 |
| 20260507152002 | 56 | 270 | 8.0 | 15.0 | 0.00 | 0.00 | 0.00 | 50 | 1011.5 |
| 20260507151809 | 56 | 261 | 7.0 | 15.0 | 0.00 | 0.00 | 0.00 | 50 | 1011.6 |
| 20260507151502 | 56 | 253 | 6.0 | 13.0 | 0.00 | 0.00 | 0.00 | 51 | 1011.6 |
| 20260507151309 | 55 | 240 | 5.0 | 13.0 | 0.00 | 0.00 | 0.00 | 52 | 1011.6 |
| 20260507151001 | 55 | 229 | 4.0 | 11.0 | 0.00 | 0.00 | 0.00 | 51 | 1011.6 |
| 20260507150809 | 55 | 229 | 3.0 | 11.0 | 0.00 | 0.00 | 0.00 | 51 | 1011.6 |
| 20260507150502 | 55 | 237 | 3.0 | 9.0 | 0.00 | 0.00 | 0.00 | 53 | 1011.6 |
| 20260507150309 | 55 | 263 | 3.0 | 9.0 | 0.00 | 0.00 | 0.00 | 51 | 1011.6 |
| 20260507150002 | 55 | 267 | 4.0 | 9.0 | 0.00 | 0.00 | 0.00 | 49 | 1011.6 |
| 20260507145809 | 55 | 258 | 4.0 | 9.0 | 0.00 | 0.00 | 0.00 | 49 | 1011.7 |
| 20260507145502 | 54 | 247 | 4.0 | 9.0 | 0.00 | 0.00 | 0.00 | 48 | 1011.7 |
| 20260507145309 | 54 | 242 | 4.0 | 9.0 | 0.00 | 0.00 | 0.00 | 50 | 1011.7 |
| 20260507145002 | 54 | 257 | 4.0 | 12.0 | 0.00 | 0.00 | 0.00 | 51 | 1011.6 |
| 20260507144809 | 54 | 268 | 5.0 | 12.0 | 0.00 | 0.00 | 0.00 | 50 | 1011.7 |
| 20260507144502 | 54 | 279 | 5.0 | 12.0 | 0.00 | 0.00 | 0.00 | 50 | 1011.8 |
| 20260507144309 | 54 | 271 | 5.0 | 12.0 | 0.00 | 0.00 | 0.00 | 50 | 1011.8 |
| 20260507144002 | 54 | 267 | 5.0 | 9.0 | 0.00 | 0.00 | 0.00 | 49 | 1011.8 |
| 20260507143809 | 54 | 268 | 5.0 | 10.0 | 0.00 | 0.00 | 0.00 | 50 | 1011.8 |
| 20260507143502 | 54 | 275 | 6.0 | 10.0 | 0.00 | 0.00 | 0.00 | 49 | 1011.8 |
| 20260507143308 | 54 | 287 | 5.0 | 10.0 | 0.00 | 0.00 | 0.00 | 50 | 1011.9 |
| 20260507143002 | 54 | 296 | 4.0 | 10.0 | 0.00 | 0.00 | 0.00 | 50 | 1011.8 |
| 20260507142808 | 54 | 306 | 3.0 | 9.0 | 0.00 | 0.00 | 0.00 | 50 | 1011.9 |
| 20260507142502 | 54 | 301 | 3.0 | 8.0 | 0.00 | 0.00 | 0.00 | 51 | 1011.8 |
| 20260507142308 | 54 | 288 | 3.0 | 8.0 | 0.00 | 0.00 | 0.00 | 50 | 1011.8 |
| 20260507142002 | 55 | 284 | 4.0 | 9.0 | 0.00 | 0.00 | 0.00 | 48 | 1011.9 |
| 20260507141808 | 55 | 274 | 4.0 | 9.0 | 0.00 | 0.00 | 0.00 | 49 | 1011.9 |
| 20260507141502 | 55 | 272 | 4.0 | 9.0 | 0.00 | 0.00 | 0.00 | 51 | 1012.0 |
| 20260507141308 | 55 | 282 | 3.0 | 9.0 | 0.00 | 0.00 | 0.00 | 50 | 1012.0 |
| 20260507141002 | 55 | 290 | 2.0 | 8.0 | 0.00 | 0.00 | 0.00 | 51 | 1011.9 |
| 20260507140808 | 55 | 285 | 2.0 | 8.0 | 0.00 | 0.00 | 0.00 | 56 | 1012.0 |
| 20260507140502 | 55 | 293 | 2.0 | 7.0 | 0.00 | 0.00 | 0.00 | 55 | 1012.0 |
| 20260507140308 | 55 | 289 | 2.0 | 7.0 | 0.00 | 0.00 | 0.00 | 56 | 1012.1 |
| 20260507140003 | 54 | 282 | 2.0 | 7.0 | 0.00 | 0.00 | 0.00 | 56 | 1012.2 |
| 20260507135808 | 54 | 295 | 2.0 | 8.0 | 0.00 | 0.00 | 0.00 | 50 | 1012.1 |
| 20260507135523 | 54 | 280 | 2.0 | 8.0 | 0.00 | 0.00 | 0.00 | 50 | 1012.2 |
| 20260507135308 | 54 | 267 | 3.0 | 8.0 | 0.00 | 0.00 | 0.00 | 50 | 1012.1 |
| 20260507135002 | 54 | 264 | 3.0 | 8.0 | 0.00 | 0.00 | 0.00 | 49 | 1012.2 |
| 20260507134808 | 54 | 256 | 2.0 | 7.0 | 0.00 | 0.00 | 0.00 | 51 | 1012.2 |
| 20260507134503 | 54 | 264 | 2.0 | 6.0 | 0.00 | 0.00 | 0.00 | 51 | 1012.3 |
| 20260507134308 | 53 | 286 | 2.0 | 6.0 | 0.00 | 0.00 | 0.00 | 52 | 1012.3 |
| 20260507134023 | 53 | 304 | 2.0 | 5.0 | 0.00 | 0.00 | 0.00 | 50 | 1012.3 |
| 20260507133808 | 53 | 308 | 2.0 | 5.0 | 0.00 | 0.00 | 0.00 | 51 | 1012.3 |
| 20260507133502 | 53 | 314 | 3.0 | 6.0 | 0.00 | 0.00 | 0.00 | 50 | 1012.3 |
| 20260507133307 | 53 | 307 | 3.0 | 7.0 | 0.00 | 0.00 | 0.00 | 51 | 1012.4 |
| 20260507133023 | 53 | 300 | 3.0 | 7.0 | 0.00 | 0.00 | 0.00 | 51 | 1012.3 |
| 20260507132807 | 54 | 293 | 3.0 | 7.0 | 0.00 | 0.00 | 0.00 | 50 | 1012.3 |
| 20260507132502 | 54 | 276 | 3.0 | 7.0 | 0.00 | 0.00 | 0.00 | 54 | 1012.3 |
| 20260507132308 | 53 | 277 | 2.0 | 6.0 | 0.00 | 0.00 | 0.00 | 55 | 1012.4 |
| 20260507132002 | 53 | 280 | 2.0 | 6.0 | 0.00 | 0.00 | 0.00 | 56 | 1012.4 |
| 20260507131807 | 53 | 281 | 2.0 | 6.0 | 0.00 | 0.00 | 0.00 | 57 | 1012.3 |
| 20260507131523 | 52 | 279 | 2.0 | 6.0 | 0.00 | 0.00 | 0.00 | 57 | 1012.3 |
| 20260507131307 | 52 | 276 | 3.0 | 6.0 | 0.00 | 0.00 | 0.00 | 58 | 1012.3 |
| 20260507131003 | 52 | 277 | 3.0 | 6.0 | 0.00 | 0.00 | 0.00 | 59 | 1012.3 |
| 20260507130807 | 51 | 280 | 2.0 | 6.0 | 0.00 | 0.00 | 0.00 | 62 | 1012.4 |
| 20260507130523 | 51 | 283 | 2.0 | 6.0 | 0.00 | 0.00 | 0.00 | 61 | 1012.4 |
| 20260507130307 | 50 | 279 | 2.0 | 6.0 | 0.00 | 0.00 | 0.00 | 63 | 1012.3 |
| 20260507130002 | 50 | 271 | 2.0 | 4.0 | 0.00 | 0.00 | 0.00 | 63 | 1012.3 |
| 20260507125807 | 50 | 263 | 2.0 | 4.0 | 0.00 | 0.00 | 0.00 | 63 | 1012.3 |
| 20260507125503 | 50 | 260 | 2.0 | 4.0 | 0.00 | 0.00 | 0.00 | 64 | 1012.3 |
| 20260507125307 | 49 | 260 | 2.0 | 4.0 | 0.00 | 0.00 | 0.00 | 64 | 1012.3 |
| 20260507125023 | 49 | 260 | 2.0 | 6.0 | 0.00 | 0.00 | 0.00 | 66 | 1012.4 |
| 20260507124807 | 49 | 259 | 3.0 | 6.0 | 0.00 | 0.00 | 0.00 | 66 | 1012.4 |
| 20260507124502 | 48 | 257 | 3.0 | 6.0 | 0.00 | 0.00 | 0.00 | 67 | 1012.3 |
| 20260507124307 | 48 | 254 | 3.0 | 6.0 | 0.00 | 0.00 | 0.00 | 68 | 1012.5 |
| 20260507124003 | 48 | 250 | 2.0 | 6.0 | 0.00 | 0.00 | 0.00 | 68 | 1012.4 |
| 20260507123807 | 48 | 245 | 2.0 | 6.0 | 0.00 | 0.00 | 0.00 | 69 | 1012.5 |
| 20260507123502 | 47 | 241 | 2.0 | 4.0 | 0.00 | 0.00 | 0.00 | 71 | 1012.4 |
| 20260507123307 | 47 | 241 | 2.0 | 4.0 | 0.00 | 0.00 | 0.00 | 71 | 1012.4 |
| 20260507123002 | 47 | 241 | 2.0 | 3.0 | 0.00 | 0.00 | 0.00 | 73 | 1012.4 |
| 20260507122807 | 46 | 241 | 2.0 | 3.0 | 0.00 | 0.00 | 0.00 | 73 | 1012.4 |
| 20260507122503 | 46 | 240 | 2.0 | 4.0 | 0.00 | 0.00 | 0.00 | 74 | 1012.4 |
| 20260507122307 | 46 | 240 | 2.0 | 4.0 | 0.00 | 0.00 | 0.00 | 74 | 1012.4 |
| 20260507122002 | 46 | 240 | 2.0 | 4.0 | 0.00 | 0.00 | 0.00 | 76 | 1012.4 |
| 20260507121806 | 46 | 240 | 2.0 | 4.0 | 0.00 | 0.00 | 0.00 | 77 | 1012.4 |
| 20260507121502 | 45 | 240 | 2.0 | 4.0 | 0.00 | 0.00 | 0.00 | 77 | 1012.4 |
| 20260507121306 | 45 | 240 | 1.0 | 4.0 | 0.00 | 0.00 | 0.00 | 79 | 1012.4 |
| 20260507121002 | 44 | 240 | 1.0 | 3.0 | 0.00 | 0.00 | 0.00 | 79 | 1012.4 |
| 20260507120806 | 44 | 240 | 1.0 | 2.0 | 0.00 | 0.00 | 0.00 | 79 | 1012.4 |
| 20260507120502 | 44 | 240 | 1.0 | 2.0 | 0.00 | 0.00 | 0.00 | 81 | 1012.4 |
| 20260507120306 | 44 | 240 | 1.0 | 3.0 | 0.00 | 0.00 | 0.00 | 81 | 1012.4 |
| 20260507120002 | 43 | 240 | 1.0 | 3.0 | 0.00 | 0.00 | 0.00 | 81 | 1012.4 |
| 20260507115806 | 43 | 240 | 2.0 | 3.0 | 0.00 | 0.00 | 0.00 | 81 | 1012.4 |
| 20260507115503 | 43 | 240 | 2.0 | 3.0 | 0.00 | 0.00 | 0.00 | 82 | 1012.4 |
| 20260507115307 | 42 | 240 | 2.0 | 3.0 | 0.00 | 0.00 | 0.00 | 82 | 1012.3 |
| 20260507115002 | 42 | 240 | 1.0 | 3.0 | 0.00 | 0.00 | 0.00 | 82 | 1012.3 |
| 20260507114806 | 42 | 240 | 1.0 | 3.0 | 0.00 | 0.00 | 0.00 | 82 | 1012.4 |
| 20260507114502 | 42 | 240 | 1.0 | 3.0 | 0.00 | 0.00 | 0.00 | 82 | 1012.3 |
| 20260507114306 | 42 | 240 | 2.0 | 3.0 | 0.00 | 0.00 | 0.00 | 82 | 1012.3 |
| 20260507114003 | 41 | 240 | 2.0 | 3.0 | 0.00 | 0.00 | 0.00 | 83 | 1012.3 |
| 20260507113806 | 41 | 240 | 1.0 | 3.0 | 0.00 | 0.00 | 0.00 | 82 | 1012.3 |
| 20260507113502 | 41 | 240 | 1.0 | 3.0 | 0.00 | 0.00 | 0.00 | 82 | 1012.3 |
| 20260507113306 | 41 | 240 | 1.0 | 2.0 | 0.00 | 0.00 | 0.00 | 82 | 1012.3 |
| 20260507113003 | 41 | 240 | 1.0 | 2.0 | 0.00 | 0.00 | 0.00 | 82 | 1012.3 |
| 20260507112806 | 41 | 240 | 1.0 | 2.0 | 0.00 | 0.00 | 0.00 | 83 | 1012.3 |
| 20260507112503 | 41 | 240 | 1.0 | 2.0 | 0.00 | 0.00 | 0.00 | 83 | 1012.3 |
| 20260507112307 | 40 | 240 | 1.0 | 2.0 | 0.00 | 0.00 | 0.00 | 83 | 1012.2 |
| 20260507112002 | 40 | 240 | 2.0 | 3.0 | 0.00 | 0.00 | 0.00 | 83 | 1012.3 |
| 20260507111806 | 40 | 240 | 2.0 | 3.0 | 0.00 | 0.00 | 0.00 | 83 | 1012.1 |
| 20260507111503 | 40 | 240 | 2.0 | 3.0 | 0.00 | 0.00 | 0.00 | 83 | 1012.2 |
| 20260507111305 | 40 | 240 | 2.0 | 3.0 | 0.00 | 0.00 | 0.00 | 83 | 1012.1 |
| 20260507111003 | 40 | 240 | 2.0 | 3.0 | 0.00 | 0.00 | 0.00 | 83 | 1012.1 |
| 20260507110805 | 40 | 240 | 2.0 | 3.0 | 0.00 | 0.00 | 0.00 | 83 | 1012.1 |
| 20260507110523 | 40 | 240 | 1.0 | 3.0 | 0.00 | 0.00 | 0.00 | 82 | 1012.1 |
| 20260507110305 | 40 | 240 | 1.0 | 2.0 | 0.00 | 0.00 | 0.00 | 82 | 1011.9 |
| 20260507110002 | 40 | 240 | 1.0 | 2.0 | 0.00 | 0.00 | 0.00 | 82 | 1011.9 |
| 20260507105805 | 40 | 240 | 1.0 | 2.0 | 0.00 | 0.00 | 0.00 | 82 | 1012.0 |
| 20260507105502 | 40 | 240 | 1.0 | 2.0 | 0.00 | 0.00 | 0.00 | 82 | 1012.0 |
| 20260507105307 | 40 | 240 | 1.0 | 2.0 | 0.00 | 0.00 | 0.00 | 82 | 1012.1 |
| 20260507105003 | 40 | 240 | 1.0 | 2.0 | 0.00 | 0.00 | 0.00 | 81 | 1012.0 |
| 20260507104805 | 40 | 240 | 1.0 | 2.0 | 0.00 | 0.00 | 0.00 | 81 | 1012.0 |
| 20260507104502 | 40 | 240 | 1.0 | 2.0 | 0.00 | 0.00 | 0.00 | 81 | 1012.0 |
| 20260507104305 | 40 | 240 | 1.0 | 2.0 | 0.00 | 0.00 | 0.00 | 81 | 1012.0 |
| 20260507104002 | 40 | 240 | 1.0 | 2.0 | 0.00 | 0.00 | 0.00 | 81 | 1012.0 |
| 20260507103805 | 40 | 240 | 1.0 | 2.0 | 0.00 | 0.00 | 0.00 | 81 | 1012.0 |
| 20260507103503 | 40 | 240 | 1.0 | 2.0 | 0.00 | 0.00 | 0.00 | 81 | 1012.0 |
| 20260507103305 | 40 | 240 | 0.0 | 2.0 | 0.00 | 0.00 | 0.00 | 81 | 1011.9 |
| 20260507103003 | 40 | 240 | 1.0 | 2.0 | 0.00 | 0.00 | 0.00 | 81 | 1011.9 |
| 20260507102805 | 40 | 240 | 1.0 | 2.0 | 0.00 | 0.00 | 0.00 | 81 | 1011.9 |
| 20260507102502 | 41 | 240 | 1.0 | 3.0 | 0.00 | 0.00 | 0.00 | 81 | 1011.8 |
| 20260507102307 | 41 | 240 | 1.0 | 3.0 | 0.00 | 0.00 | 0.00 | 81 | 1011.9 |
| 20260507102003 | 41 | 240 | 1.0 | 3.0 | 0.00 | 0.00 | 0.00 | 81 | 1011.9 |
| 20260507101805 | 41 | 240 | 1.0 | 3.0 | 0.00 | 0.00 | 0.00 | 80 | 1012.0 |
| 20260507101503 | 41 | 240 | 1.0 | 3.0 | 0.00 | 0.00 | 0.00 | 80 | 1011.8 |
| 20260507101305 | 41 | 240 | 2.0 | 4.0 | 0.00 | 0.00 | 0.00 | 80 | 1011.8 |
| 20260507101002 | 41 | 240 | 2.0 | 4.0 | 0.00 | 0.00 | 0.00 | 79 | 1011.8 |
| 20260507100805 | 41 | 240 | 2.0 | 4.0 | 0.00 | 0.00 | 0.00 | 79 | 1011.8 |
| 20260507100503 | 41 | 240 | 1.0 | 4.0 | 0.00 | 0.00 | 0.00 | 79 | 1011.8 |
| 20260507100305 | 41 | 240 | 1.0 | 4.0 | 0.00 | 0.00 | 0.00 | 79 | 1011.8 |
| 20260507100023 | 41 | 238 | 0.0 | 4.0 | 0.00 | 0.00 | 0.00 | 78 | 1011.8 |
| 20260507095804 | 41 | 0 | 0.0 | 0.0 | 0.00 | 0.00 | 0.00 | 78 | 1011.8 |
| 20260507095502 | 41 | 0 | 0.0 | 0.0 | 0.00 | 0.00 | 0.00 | 78 | 1011.7 |
| 20260507095306 | 41 | 0 | 0.0 | 0.0 | 0.00 | 0.00 | 0.00 | 78 | 1011.7 |
| 20260507095003 | 41 | 0 | 0.0 | 0.0 | 0.00 | 0.00 | 0.00 | 77 | 1011.7 |
| 20260507094804 | 42 | 0 | 0.0 | 0.0 | 0.00 | 0.00 | 0.00 | 77 | 1011.6 |
| 20260507094503 | 42 | 0 | 0.0 | 0.0 | 0.00 | 0.00 | 0.00 | 77 | 1011.7 |
| 20260507094304 | 42 | 0 | 0.0 | 0.0 | 0.00 | 0.00 | 0.00 | 77 | 1011.7 |
| 20260507094002 | 42 | 0 | 0.0 | 0.0 | 0.00 | 0.00 | 0.00 | 77 | 1011.7 |
| 20260507093804 | 42 | 0 | 0.0 | 0.0 | 0.00 | 0.00 | 0.00 | 77 | 1011.7 |
| 20260507093502 | 42 | 0 | 0.0 | 0.0 | 0.00 | 0.00 | 0.00 | 76 | 1011.7 |
| 20260507093304 | 42 | 0 | 0.0 | 0.0 | 0.00 | 0.00 | 0.00 | 76 | 1011.7 |
| 20260507093003 | 42 | 0 | 0.0 | 0.0 | 0.00 | 0.00 | 0.00 | 76 | 1011.6 |
| 20260507092804 | 42 | 0 | 0.0 | 0.0 | 0.00 | 0.00 | 0.00 | 76 | 1011.6 |
| 20260507092502 | 42 | 0 | 0.0 | 0.0 | 0.00 | 0.00 | 0.00 | 76 | 1011.7 |
| 20260507092307 | 42 | 0 | 0.0 | 0.0 | 0.00 | 0.00 | 0.00 | 76 | 1011.9 |
| 20260507092024 | 42 | 0 | 0.0 | 0.0 | 0.00 | 0.00 | 0.00 | 76 | 1011.8 |
| 20260507091804 | 42 | 0 | 0.0 | 0.0 | 0.00 | 0.00 | 0.00 | 76 | 1011.9 |
| 20260507091503 | 42 | 0 | 0.0 | 0.0 | 0.00 | 0.00 | 0.00 | 75 | 1011.9 |
| 20260507091304 | 42 | 0 | 0.0 | 0.0 | 0.00 | 0.00 | 0.00 | 75 | 1011.8 |
| 20260507091002 | 42 | 0 | 0.0 | 0.0 | 0.00 | 0.00 | 0.00 | 75 | 1011.8 |
| 20260507090804 | 42 | 0 | 0.0 | 0.0 | 0.00 | 0.00 | 0.00 | 75 | 1011.9 |
| 20260507090502 | 42 | 0 | 0.0 | 0.0 | 0.00 | 0.00 | 0.00 | 75 | 1012.0 |
| 20260507090304 | 42 | 0 | 0.0 | 0.0 | 0.00 | 0.00 | 0.00 | 75 | 1011.8 |
| 20260507090002 | 42 | 0 | 0.0 | 0.0 | 0.00 | 0.00 | 0.00 | 75 | 1011.9 |
| 20260507085804 | 42 | 198 | 0.0 | 2.0 | 0.00 | 0.00 | 0.00 | 75 | 1012.0 |
| 20260507085503 | 42 | 198 | 0.0 | 2.0 | 0.00 | 0.00 | 0.00 | 75 | 1012.1 |
| 20260507085306 | 42 | 198 | 0.0 | 2.0 | 0.00 | 0.00 | 0.00 | 75 | 1012.1 |
| 20260507085002 | 42 | 198 | 0.0 | 2.0 | 0.00 | 0.00 | 0.00 | 74 | 1012.0 |
| 20260507084804 | 42 | 198 | 0.0 | 1.0 | 0.00 | 0.00 | 0.00 | 74 | 1012.0 |
| 20260507084503 | 42 | 198 | 0.0 | 2.0 | 0.00 | 0.00 | 0.00 | 74 | 1012.1 |
| 20260507084303 | 42 | 198 | 1.0 | 2.0 | 0.00 | 0.00 | 0.00 | 74 | 1012.0 |
| 20260507084004 | 42 | 197 | 1.0 | 3.0 | 0.00 | 0.00 | 0.00 | 74 | 1012.1 |
| 20260507083803 | 42 | 197 | 2.0 | 3.0 | 0.00 | 0.00 | 0.00 | 73 | 1012.1 |
| 20260507083503 | 42 | 196 | 2.0 | 3.0 | 0.00 | 0.00 | 0.00 | 74 | 1012.1 |
| 20260507083303 | 42 | 196 | 2.0 | 3.0 | 0.00 | 0.00 | 0.00 | 74 | 1012.0 |
| 20260507083002 | 43 | 195 | 2.0 | 3.0 | 0.00 | 0.00 | 0.00 | 74 | 1011.9 |
| 20260507082803 | 43 | 195 | 2.0 | 3.0 | 0.00 | 0.00 | 0.00 | 74 | 1011.9 |
| 20260507082523 | 43 | 195 | 2.0 | 3.0 | 0.00 | 0.00 | 0.00 | 74 | 1012.0 |
| 20260507082306 | 43 | 195 | 2.0 | 3.0 | 0.00 | 0.00 | 0.00 | 74 | 1012.0 |
| 20260507082002 | 43 | 195 | 2.0 | 3.0 | 0.00 | 0.00 | 0.00 | 73 | 1011.9 |
| 20260507081803 | 43 | 195 | 2.0 | 3.0 | 0.00 | 0.00 | 0.00 | 73 | 1012.0 |
| 20260507081503 | 43 | 195 | 2.0 | 3.0 | 0.00 | 0.00 | 0.00 | 73 | 1012.0 |
| 20260507081303 | 43 | 195 | 1.0 | 3.0 | 0.00 | 0.00 | 0.00 | 73 | 1012.0 |
| 20260507081002 | 43 | 195 | 1.0 | 2.0 | 0.00 | 0.00 | 0.00 | 73 | 1011.9 |
| 20260507080803 | 43 | 193 | 1.0 | 3.0 | 0.00 | 0.00 | 0.00 | 73 | 1011.9 |
| 20260507080502 | 43 | 188 | 2.0 | 3.0 | 0.00 | 0.00 | 0.00 | 73 | 1011.9 |
| 20260507080303 | 43 | 185 | 2.0 | 3.0 | 0.00 | 0.00 | 0.00 | 73 | 1011.8 |
| 20260507080023 | 43 | 182 | 2.0 | 3.0 | 0.00 | 0.00 | 0.00 | 73 | 1011.9 |
| 20260507075803 | 43 | 180 | 2.0 | 3.0 | 0.00 | 0.00 | 0.00 | 73 | 1012.0 |
| 20260507075524 | 43 | 180 | 2.0 | 3.0 | 0.00 | 0.00 | 0.00 | 74 | 1012.0 |
| 20260507075306 | 43 | 179 | 2.0 | 3.0 | 0.00 | 0.00 | 0.00 | 73 | 1011.9 |
| 20260507075003 | 43 | 179 | 2.0 | 3.0 | 0.00 | 0.00 | 0.00 | 75 | 1011.9 |
| 20260507074803 | 43 | 179 | 1.0 | 3.0 | 0.00 | 0.00 | 0.00 | 75 | 1011.9 |
| 20260507074524 | 43 | 179 | 1.0 | 3.0 | 0.00 | 0.00 | 0.00 | 75 | 1011.9 |
| 20260507074303 | 43 | 179 | 1.0 | 3.0 | 0.00 | 0.00 | 0.00 | 76 | 1011.9 |
| 20260507074023 | 44 | 179 | 1.0 | 2.0 | 0.00 | 0.00 | 0.00 | 75 | 1011.8 |
| 20260507073803 | 44 | 179 | 1.0 | 2.0 | 0.00 | 0.00 | 0.00 | 76 | 1011.8 |
| 20260507073503 | 44 | 179 | 1.0 | 2.0 | 0.00 | 0.00 | 0.00 | 76 | 1011.8 |
| 20260507073302 | 44 | 179 | 1.0 | 2.0 | 0.00 | 0.00 | 0.00 | 76 | 1011.9 |
| 20260507073003 | 44 | 179 | 1.0 | 2.0 | 0.00 | 0.00 | 0.00 | 76 | 1011.9 |
| 20260507072802 | 44 | 179 | 1.0 | 2.0 | 0.00 | 0.00 | 0.00 | 77 | 1011.9 |
| 20260507072502 | 44 | 179 | 1.0 | 3.0 | 0.00 | 0.00 | 0.00 | 77 | 1011.9 |
| 20260507072306 | 44 | 179 | 1.0 | 3.0 | 0.00 | 0.00 | 0.00 | 77 | 1011.8 |
| 20260507072003 | 44 | 179 | 1.0 | 3.0 | 0.00 | 0.00 | 0.00 | 78 | 1011.8 |
| 20260507071802 | 44 | 179 | 2.0 | 3.0 | 0.00 | 0.00 | 0.00 | 79 | 1011.7 |
| 20260507071503 | 44 | 179 | 2.0 | 3.0 | 0.00 | 0.00 | 0.00 | 79 | 1011.9 |
| 20260507071302 | 44 | 179 | 2.0 | 3.0 | 0.00 | 0.00 | 0.00 | 80 | 1011.9 |
| 20260507071002 | 44 | 179 | 1.0 | 3.0 | 0.00 | 0.00 | 0.00 | 81 | 1011.9 |
| 20260507070802 | 44 | 179 | 1.0 | 3.0 | 0.00 | 0.00 | 0.00 | 81 | 1011.9 |
| 20260507070503 | 45 | 179 | 0.0 | 3.0 | 0.00 | 0.00 | 0.00 | 81 | 1011.9 |
| 20260507070302 | 45 | 178 | 0.0 | 2.0 | 0.00 | 0.00 | 0.00 | 81 | 1011.9 |
| 20260507070004 | 45 | 0 | 0.0 | 0.0 | 0.00 | 0.00 | 0.00 | 81 | 1011.8 |
| 20260507065802 | 45 | 0 | 0.0 | 0.0 | 0.00 | 0.00 | 0.00 | 81 | 1011.9 |
| 20260507065503 | 45 | 0 | 0.0 | 0.0 | 0.00 | 0.00 | 0.00 | 81 | 1011.9 |
| 20260507065305 | 45 | 0 | 0.0 | 0.0 | 0.00 | 0.00 | 0.00 | 81 | 1011.8 |
| 20260507065002 | 45 | 0 | 0.0 | 0.0 | 0.00 | 0.00 | 0.00 | 81 | 1011.9 |
| 20260507064802 | 45 | 0 | 0.0 | 0.0 | 0.00 | 0.00 | 0.00 | 80 | 1011.8 |
| 20260507064503 | 45 | 0 | 0.0 | 0.0 | 0.00 | 0.00 | 0.00 | 80 | 1011.8 |
| 20260507064302 | 46 | 0 | 0.0 | 0.0 | 0.00 | 0.00 | 0.00 | 80 | 1011.9 |
| 20260507064003 | 46 | 178 | 0.0 | 1.0 | 0.00 | 0.00 | 0.00 | 80 | 1011.8 |
| 20260507063802 | 46 | 178 | 0.0 | 1.0 | 0.00 | 0.00 | 0.00 | 80 | 1011.8 |
| 20260507063502 | 46 | 178 | 0.0 | 1.0 | 0.00 | 0.00 | 0.00 | 80 | 1011.9 |
| 20260507063302 | 46 | 178 | 0.0 | 1.0 | 0.00 | 0.00 | 0.00 | 80 | 1011.9 |
| 20260507063003 | 46 | 178 | 0.0 | 1.0 | 0.00 | 0.00 | 0.00 | 80 | 1011.9 |
| 20260507062801 | 46 | 178 | 0.0 | 1.0 | 0.00 | 0.00 | 0.00 | 80 | 1011.9 |
| 20260507062503 | 46 | 178 | 0.0 | 1.0 | 0.00 | 0.00 | 0.00 | 80 | 1011.9 |
| 20260507062305 | 46 | 178 | 0.0 | 1.0 | 0.00 | 0.00 | 0.00 | 80 | 1011.8 |
| 20260507062003 | 46 | 0 | 0.0 | 0.0 | 0.00 | 0.00 | 0.00 | 80 | 1011.9 |
| 20260507061801 | 46 | 178 | 0.0 | 1.0 | 0.00 | 0.00 | 0.00 | 80 | 1011.8 |
| 20260507061503 | 46 | 178 | 0.0 | 1.0 | 0.00 | 0.00 | 0.00 | 80 | 1011.8 |
| 20260507061301 | 46 | 178 | 0.0 | 1.0 | 0.00 | 0.00 | 0.00 | 80 | 1011.9 |
| 20260507061024 | 46 | 178 | 0.0 | 1.0 | 0.00 | 0.00 | 0.00 | 80 | 1011.8 |
| 20260507060801 | 47 | 178 | 0.0 | 1.0 | 0.00 | 0.00 | 0.00 | 80 | 1012.0 |
| 20260507060503 | 47 | 178 | 0.0 | 1.0 | 0.00 | 0.00 | 0.00 | 80 | 1012.0 |
| 20260507060301 | 47 | 0 | 0.0 | 0.0 | 0.00 | 0.00 | 0.00 | 79 | 1011.9 |
| 20260507060003 | 47 | 0 | 0.0 | 0.0 | 0.00 | 0.00 | 0.00 | 79 | 1011.9 |
| 20260507055801 | 47 | 0 | 0.0 | 0.0 | 0.00 | 0.00 | 0.00 | 79 | 1011.9 |
| 20260507055503 | 47 | 0 | 0.0 | 0.0 | 0.00 | 0.00 | 0.00 | 80 | 1012.0 |
| 20260507055301 | 47 | 0 | 0.0 | 0.0 | 0.00 | 0.00 | 0.00 | 79 | 1012.0 |
| 20260507055004 | 47 | 0 | 0.0 | 0.0 | 0.00 | 0.00 | 0.00 | 79 | 1012.0 |
| 20260507054801 | 47 | 0 | 0.0 | 0.0 | 0.00 | 0.00 | 0.00 | 79 | 1012.0 |
| 20260507054503 | 47 | 178 | 0.0 | 1.0 | 0.00 | 0.00 | 0.00 | 79 | 1012.0 |
| 20260507054301 | 47 | 178 | 0.0 | 1.0 | 0.00 | 0.00 | 0.00 | 79 | 1011.9 |
| 20260507054024 | 47 | 178 | 0.0 | 1.0 | 0.00 | 0.00 | 0.00 | 79 | 1012.0 |
| 20260507053801 | 47 | 178 | 0.0 | 1.0 | 0.00 | 0.00 | 0.00 | 79 | 1012.0 |
| 20260507053503 | 47 | 178 | 0.0 | 2.0 | 0.00 | 0.00 | 0.00 | 79 | 1012.0 |
| 20260507053301 | 47 | 178 | 0.0 | 2.0 | 0.00 | 0.00 | 0.00 | 79 | 1012.1 |
| 20260507053003 | 47 | 178 | 0.0 | 2.0 | 0.00 | 0.00 | 0.00 | 79 | 1012.0 |
| 20260507052801 | 47 | 178 | 0.0 | 2.0 | 0.00 | 0.00 | 0.00 | 79 | 1012.1 |
| 20260507052502 | 47 | 178 | 0.0 | 1.0 | 0.00 | 0.00 | 0.00 | 79 | 1012.0 |
| 20260507052300 | 47 | 178 | 1.0 | 3.0 | 0.00 | 0.00 | 0.00 | 79 | 1012.1 |
| 20260507052003 | 48 | 178 | 1.0 | 3.0 | 0.00 | 0.00 | 0.00 | 79 | 1012.2 |
| 20260507051800 | 48 | 178 | 1.0 | 3.0 | 0.00 | 0.00 | 0.00 | 79 | 1012.2 |
| 20260507051503 | 48 | 178 | 1.0 | 3.0 | 0.00 | 0.00 | 0.00 | 79 | 1012.2 |
| 20260507051300 | 48 | 178 | 1.0 | 2.0 | 0.00 | 0.00 | 0.00 | 79 | 1012.2 |
| 20260507051003 | 48 | 178 | 1.0 | 3.0 | 0.00 | 0.00 | 0.00 | 79 | 1012.2 |
| 20260507050800 | 48 | 178 | 1.0 | 3.0 | 0.00 | 0.00 | 0.00 | 79 | 1012.1 |
| 20260507050503 | 48 | 178 | 1.0 | 3.0 | 0.00 | 0.00 | 0.00 | 79 | 1012.3 |
| 20260507050300 | 48 | 178 | 1.0 | 3.0 | 0.00 | 0.00 | 0.00 | 79 | 1012.2 |
| 20260507050003 | 48 | 178 | 1.0 | 3.0 | 0.00 | 0.00 | 0.00 | 79 | 1012.3 |
| 20260507045800 | 48 | 178 | 1.0 | 3.0 | 0.00 | 0.00 | 0.00 | 79 | 1012.3 |
| 20260507045524 | 48 | 178 | 1.0 | 4.0 | 0.00 | 0.00 | 0.00 | 79 | 1012.3 |
| 20260507045300 | 48 | 178 | 1.0 | 4.0 | 0.00 | 0.00 | 0.00 | 79 | 1012.3 |
| 20260507045003 | 48 | 178 | 1.0 | 4.0 | 0.00 | 0.00 | 0.00 | 79 | 1012.4 |
| 20260507044800 | 48 | 178 | 1.0 | 4.0 | 0.00 | 0.00 | 0.00 | 79 | 1012.4 |
| 20260507044503 | 48 | 178 | 1.0 | 2.0 | 0.00 | 0.00 | 0.00 | 79 | 1012.3 |
| 20260507044300 | 48 | 178 | 1.0 | 4.0 | 0.00 | 0.00 | 0.00 | 79 | 1012.4 |
| 20260507044003 | 48 | 178 | 1.0 | 4.0 | 0.00 | 0.00 | 0.00 | 78 | 1012.4 |
| 20260507043800 | 48 | 178 | 1.0 | 4.0 | 0.00 | 0.00 | 0.00 | 78 | 1012.4 |
| 20260507043524 | 48 | 178 | 1.0 | 4.0 | 0.00 | 0.00 | 0.00 | 78 | 1012.4 |
| 20260507043300 | 48 | 178 | 1.0 | 3.0 | 0.00 | 0.00 | 0.00 | 78 | 1012.3 |
| 20260507043003 | 48 | 178 | 1.0 | 2.0 | 0.00 | 0.00 | 0.00 | 78 | 1012.3 |
| 20260507042800 | 48 | 178 | 1.0 | 3.0 | 0.00 | 0.00 | 0.00 | 78 | 1012.4 |
| 20260507042503 | 48 | 178 | 1.0 | 3.0 | 0.00 | 0.00 | 0.00 | 78 | 1012.4 |
| 20260507042300 | 48 | 178 | 1.0 | 4.0 | 0.00 | 0.00 | 0.00 | 78 | 1012.5 |
| 20260507042003 | 48 | 178 | 2.0 | 4.0 | 0.00 | 0.00 | 0.00 | 78 | 1012.5 |
| 20260507041800 | 48 | 178 | 2.0 | 4.0 | 0.00 | 0.00 | 0.00 | 78 | 1012.5 |
| 20260507041503 | 48 | 179 | 2.0 | 4.0 | 0.00 | 0.00 | 0.00 | 78 | 1012.4 |
| 20260507041300 | 48 | 179 | 2.0 | 4.0 | 0.00 | 0.00 | 0.00 | 78 | 1012.4 |
| 20260507041024 | 48 | 180 | 2.0 | 4.0 | 0.00 | 0.00 | 0.00 | 78 | 1012.4 |
| 20260507040759 | 48 | 181 | 2.0 | 4.0 | 0.00 | 0.00 | 0.00 | 77 | 1012.4 |
| 20260507040503 | 48 | 181 | 1.0 | 4.0 | 0.00 | 0.00 | 0.00 | 77 | 1012.4 |
| 20260507040259 | 48 | 181 | 2.0 | 4.0 | 0.00 | 0.00 | 0.00 | 77 | 1012.5 |
| 20260507040024 | 48 | 181 | 2.0 | 4.0 | 0.00 | 0.00 | 0.00 | 77 | 1012.4 |
| 20260507035759 | 48 | 180 | 2.0 | 5.0 | 0.00 | 0.00 | 0.00 | 77 | 1012.4 |
| 20260507035504 | 48 | 179 | 2.0 | 5.0 | 0.00 | 0.00 | 0.00 | 76 | 1012.4 |
| 20260507035259 | 48 | 177 | 3.0 | 5.0 | 0.00 | 0.00 | 0.00 | 76 | 1012.4 |
| 20260507035003 | 48 | 176 | 3.0 | 5.0 | 0.00 | 0.00 | 0.00 | 76 | 1012.5 |
| 20260507034759 | 48 | 177 | 2.0 | 5.0 | 0.00 | 0.00 | 0.00 | 76 | 1012.5 |
| 20260507034503 | 48 | 178 | 3.0 | 5.0 | 0.00 | 0.00 | 0.00 | 76 | 1012.5 |
| 20260507034259 | 48 | 175 | 3.0 | 5.0 | 0.00 | 0.00 | 0.00 | 76 | 1012.6 |
| 20260507034003 | 48 | 178 | 3.0 | 5.0 | 0.00 | 0.00 | 0.00 | 75 | 1012.6 |
| 20260507033759 | 49 | 181 | 3.0 | 5.0 | 0.00 | 0.00 | 0.00 | 75 | 1012.5 |
| 20260507033503 | 49 | 184 | 3.0 | 5.0 | 0.00 | 0.00 | 0.00 | 75 | 1012.7 |
| 20260507033259 | 49 | 188 | 3.0 | 6.0 | 0.00 | 0.00 | 0.00 | 75 | 1012.6 |
| 20260507033003 | 49 | 187 | 3.0 | 6.0 | 0.00 | 0.00 | 0.00 | 75 | 1012.7 |
| 20260507032759 | 49 | 185 | 3.0 | 6.0 | 0.00 | 0.00 | 0.00 | 75 | 1012.8 |
| 20260507032503 | 49 | 183 | 3.0 | 6.0 | 0.00 | 0.00 | 0.00 | 75 | 1012.7 |
| 20260507032259 | 49 | 185 | 2.0 | 6.0 | 0.00 | 0.00 | 0.00 | 75 | 1012.8 |
| 20260507032004 | 49 | 185 | 3.0 | 6.0 | 0.00 | 0.00 | 0.00 | 75 | 1012.6 |
| 20260507031759 | 49 | 180 | 3.0 | 6.0 | 0.00 | 0.00 | 0.00 | 75 | 1012.8 |
| 20260507031503 | 49 | 177 | 3.0 | 7.0 | 0.00 | 0.00 | 0.00 | 75 | 1012.7 |
| 20260507031259 | 49 | 171 | 3.0 | 7.0 | 0.00 | 0.00 | 0.00 | 75 | 1012.8 |
| 20260507031024 | 49 | 167 | 3.0 | 7.0 | 0.00 | 0.00 | 0.00 | 75 | 1012.8 |
| 20260507030758 | 49 | 165 | 3.0 | 8.0 | 0.00 | 0.00 | 0.00 | 76 | 1012.8 |
| 20260507030503 | 49 | 166 | 3.0 | 8.0 | 0.00 | 0.00 | 0.00 | 76 | 1012.8 |
| 20260507030258 | 49 | 165 | 3.0 | 8.0 | 0.00 | 0.00 | 0.00 | 75 | 1012.8 |
| 20260507030003 | 49 | 164 | 3.0 | 8.0 | 0.00 | 0.00 | 0.00 | 75 | 1012.8 |
| 20260507025758 | 49 | 168 | 4.0 | 8.0 | 0.00 | 0.00 | 0.00 | 75 | 1012.8 |
| 20260507025503 | 50 | 168 | 4.0 | 8.0 | 0.00 | 0.00 | 0.00 | 74 | 1012.9 |
| 20260507025258 | 50 | 170 | 4.0 | 8.0 | 0.00 | 0.00 | 0.00 | 74 | 1012.8 |
| 20260507025003 | 50 | 170 | 4.0 | 7.0 | 0.00 | 0.00 | 0.00 | 74 | 1012.8 |
| 20260507024758 | 50 | 164 | 3.0 | 7.0 | 0.00 | 0.00 | 0.00 | 74 | 1012.6 |
| 20260507024503 | 50 | 160 | 3.0 | 7.0 | 0.00 | 0.00 | 0.00 | 75 | 1012.7 |
| 20260507024258 | 50 | 158 | 2.0 | 5.0 | 0.00 | 0.00 | 0.00 | 77 | 1012.5 |
| 20260507024004 | 50 | 161 | 2.0 | 5.0 | 0.00 | 0.00 | 0.00 | 77 | 1012.6 |
| 20260507023758 | 50 | 168 | 3.0 | 8.0 | 0.00 | 0.00 | 0.00 | 77 | 1012.6 |
| 20260507023503 | 50 | 171 | 3.0 | 8.0 | 0.00 | 0.00 | 0.00 | 76 | 1012.6 |
| 20260507023258 | 50 | 172 | 3.0 | 8.0 | 0.00 | 0.00 | 0.00 | 76 | 1012.6 |
| 20260507023003 | 50 | 172 | 3.0 | 8.0 | 0.00 | 0.00 | 0.00 | 76 | 1012.7 |
| 20260507022758 | 50 | 164 | 3.0 | 6.0 | 0.00 | 0.00 | 0.00 | 76 | 1012.6 |
| 20260507022503 | 50 | 159 | 3.0 | 5.0 | 0.00 | 0.00 | 0.00 | 76 | 1012.7 |
| 20260507022258 | 50 | 157 | 3.0 | 5.0 | 0.00 | 0.00 | 0.00 | 76 | 1012.6 |
| 20260507022003 | 50 | 153 | 3.0 | 7.0 | 0.00 | 0.00 | 0.00 | 75 | 1012.5 |
| 20260507021758 | 50 | 156 | 3.0 | 7.0 | 0.00 | 0.00 | 0.00 | 74 | 1012.6 |
| 20260507021503 | 50 | 155 | 3.0 | 7.0 | 0.00 | 0.00 | 0.00 | 74 | 1012.6 |
| 20260507021258 | 50 | 150 | 3.0 | 7.0 | 0.00 | 0.00 | 0.00 | 73 | 1012.5 |
| 20260507021004 | 50 | 151 | 3.0 | 6.0 | 0.00 | 0.00 | 0.00 | 74 | 1012.5 |
| 20260507020758 | 50 | 150 | 3.0 | 6.0 | 0.00 | 0.00 | 0.00 | 76 | 1012.4 |
| 20260507020524 | 50 | 153 | 3.0 | 6.0 | 0.00 | 0.00 | 0.00 | 76 | 1012.4 |
| 20260507020258 | 51 | 151 | 3.0 | 6.0 | 0.00 | 0.00 | 0.00 | 75 | 1012.4 |
| 20260507020003 | 51 | 149 | 3.0 | 6.0 | 0.00 | 0.00 | 0.00 | 75 | 1012.3 |
| 20260507015758 | 51 | 145 | 2.0 | 5.0 | 0.00 | 0.00 | 0.00 | 73 | 1012.3 |
| 20260507015503 | 50 | 143 | 2.0 | 5.0 | 0.00 | 0.00 | 0.00 | 72 | 1012.3 |
| 20260507015257 | 50 | 146 | 2.0 | 5.0 | 0.00 | 0.00 | 0.00 | 69 | 1012.5 |
| 20260507015004 | 50 | 147 | 2.0 | 5.0 | 0.00 | 0.00 | 0.00 | 69 | 1012.2 |
| 20260507014757 | 50 | 147 | 2.0 | 5.0 | 0.00 | 0.00 | 0.00 | 69 | 1012.4 |
| 20260507014503 | 50 | 148 | 2.0 | 4.0 | 0.00 | 0.00 | 0.00 | 69 | 1012.3 |
| 20260507014257 | 50 | 149 | 2.0 | 4.0 | 0.00 | 0.00 | 0.00 | 68 | 1012.3 |
| 20260507014003 | 50 | 145 | 2.0 | 4.0 | 0.00 | 0.00 | 0.00 | 68 | 1012.4 |
| 20260507013757 | 50 | 141 | 2.0 | 4.0 | 0.00 | 0.00 | 0.00 | 68 | 1012.3 |
| 20260507013504 | 50 | 135 | 2.0 | 4.0 | 0.00 | 0.00 | 0.00 | 68 | 1012.4 |
| 20260507013257 | 50 | 128 | 2.0 | 4.0 | 0.00 | 0.00 | 0.00 | 67 | 1012.4 |
| 20260507013004 | 50 | 128 | 2.0 | 4.0 | 0.00 | 0.00 | 0.00 | 68 | 1012.3 |
| 20260507012757 | 50 | 134 | 2.0 | 4.0 | 0.00 | 0.00 | 0.00 | 68 | 1012.3 |
| 20260507012503 | 50 | 138 | 2.0 | 4.0 | 0.00 | 0.00 | 0.00 | 68 | 1012.3 |
| 20260507012257 | 50 | 139 | 2.0 | 4.0 | 0.00 | 0.00 | 0.00 | 68 | 1012.2 |
| 20260507012024 | 50 | 140 | 2.0 | 4.0 | 0.00 | 0.00 | 0.00 | 69 | 1012.2 |
| 20260507011757 | 50 | 138 | 1.0 | 4.0 | 0.00 | 0.00 | 0.00 | 69 | 1012.2 |
| 20260507011524 | 50 | 136 | 1.0 | 4.0 | 0.00 | 0.00 | 0.00 | 70 | 1012.2 |
| 20260507011257 | 50 | 138 | 2.0 | 5.0 | 0.00 | 0.00 | 0.00 | 69 | 1012.2 |
| 20260507011004 | 50 | 139 | 2.0 | 5.0 | 0.00 | 0.00 | 0.00 | 69 | 1012.2 |
| 20260507010757 | 50 | 142 | 2.0 | 5.0 | 0.00 | 0.00 | 0.00 | 68 | 1012.2 |
| 20260507010503 | 50 | 143 | 2.0 | 5.0 | 0.00 | 0.00 | 0.00 | 69 | 1012.2 |
| 20260507010257 | 50 | 145 | 1.0 | 5.0 | 0.00 | 0.00 | 0.00 | 68 | 1012.2 |
| 20260507010024 | 50 | 148 | 1.0 | 5.0 | 0.00 | 0.00 | 0.00 | 68 | 1012.2 |
| 20260507005757 | 50 | 158 | 2.0 | 5.0 | 0.00 | 0.00 | 0.00 | 67 | 1012.3 |
| 20260507005504 | 50 | 161 | 2.0 | 5.0 | 0.00 | 0.00 | 0.00 | 69 | 1012.2 |
| 20260507005257 | 50 | 162 | 2.0 | 5.0 | 0.00 | 0.00 | 0.00 | 69 | 1012.3 |
| 20260507005004 | 50 | 160 | 2.0 | 5.0 | 0.00 | 0.00 | 0.00 | 69 | 1012.2 |
| 20260507004756 | 50 | 156 | 1.0 | 5.0 | 0.00 | 0.00 | 0.00 | 69 | 1012.1 |
| 20260507004503 | 50 | 152 | 1.0 | 5.0 | 0.00 | 0.00 | 0.00 | 69 | 1012.3 |
| 20260507004256 | 50 | 150 | 1.0 | 3.0 | 0.00 | 0.00 | 0.00 | 70 | 1012.2 |
| 20260507004004 | 50 | 150 | 1.0 | 4.0 | 0.00 | 0.00 | 0.00 | 69 | 1012.1 |
| 20260507003756 | 50 | 150 | 2.0 | 5.0 | 0.00 | 0.00 | 0.00 | 68 | 1012.2 |
| 20260507003500 | 50 | 151 | 2.0 | 5.0 | 0.00 | 0.00 | 0.00 | 68 | 1012.2 |
| 20260507003226 | 50 | 153 | 2.0 | 5.0 | 0.00 | 0.00 | 0.00 | 67 | 1012.2 |
| 20260507003001 | 50 | 155 | 2.0 | 5.0 | 0.00 | 0.00 | 0.00 | 68 | 1012.2 |
| 20260507002726 | 50 | 159 | 2.0 | 4.0 | 0.00 | 0.00 | 0.00 | 67 | 1012.2 |
| 20260507002501 | 50 | 158 | 2.0 | 6.0 | 0.00 | 0.00 | 0.00 | 68 | 1012.3 |
| 20260507002226 | 50 | 153 | 2.0 | 6.0 | 0.00 | 0.00 | 0.00 | 68 | 1012.2 |
| 20260507002000 | 50 | 151 | 2.0 | 6.0 | 0.00 | 0.00 | 0.00 | 67 | 1012.2 |
| 20260507001726 | 50 | 148 | 1.0 | 6.0 | 0.00 | 0.00 | 0.00 | 67 | 1012.2 |
| 20260507001522 | 50 | 143 | 1.0 | 4.0 | 0.00 | 0.00 | 0.00 | 67 | 1012.2 |
| 20260507001226 | 50 | 145 | 1.0 | 4.0 | 0.00 | 0.00 | 0.00 | 67 | 1012.2 |
| 20260507001001 | 50 | 146 | 1.0 | 4.0 | 0.00 | 0.00 | 0.00 | 68 | 1012.2 |
| 20260507000726 | 50 | 143 | 2.0 | 4.0 | 0.00 | 0.00 | 0.00 | 67 | 1012.2 |
| 20260507000501 | 50 | 135 | 2.0 | 4.0 | 0.00 | 0.00 | 0.00 | 66 | 1012.2 |
| 20260507000226 | 50 | 118 | 2.0 | 6.0 | 0.00 | 0.00 | 0.00 | 67 | 1012.1 |
| 20260507000002 | 50 | 111 | 2.0 | 6.0 | 0.00 | 0.00 | 0.00 | 66 | 1012.1 |
| 20260506235726 | 50 | 100 | 2.0 | 6.0 | 0.00 | 0.00 | 0.00 | 65 | 1012.2 |
| 20260506235501 | 50 | 97 | 2.0 | 6.0 | 0.00 | 0.00 | 0.00 | 65 | 1012.1 |
| 20260506235226 | 50 | 91 | 1.0 | 4.0 | 0.00 | 0.00 | 0.00 | 66 | 1012.2 |
| 20260506235001 | 50 | 88 | 1.0 | 4.0 | 0.00 | 0.00 | 0.00 | 65 | 1012.1 |
| 20260506234725 | 50 | 87 | 2.0 | 4.0 | 0.00 | 0.00 | 0.00 | 65 | 1012.1 |
| 20260506234500 | 50 | 87 | 2.0 | 4.0 | 0.00 | 0.00 | 0.00 | 66 | 1012.1 |
| 20260506234225 | 50 | 86 | 2.0 | 6.0 | 0.00 | 0.00 | 0.00 | 66 | 1012.1 |
| 20260506234000 | 50 | 86 | 2.0 | 6.0 | 0.00 | 0.00 | 0.00 | 66 | 1012.1 |
| 20260506233725 | 50 | 86 | 2.0 | 6.0 | 0.00 | 0.00 | 0.00 | 65 | 1012.1 |
| 20260506233501 | 51 | 87 | 2.0 | 6.0 | 0.00 | 0.00 | 0.00 | 65 | 1012.1 |
| 20260506233225 | 51 | 88 | 2.0 | 6.0 | 0.00 | 0.00 | 0.00 | 63 | 1012.0 |
| 20260506233001 | 51 | 87 | 3.0 | 6.0 | 0.00 | 0.00 | 0.00 | 63 | 1012.1 |
| 20260506232725 | 51 | 88 | 2.0 | 6.0 | 0.00 | 0.00 | 0.00 | 62 | 1011.9 |
| 20260506232501 | 51 | 88 | 2.0 | 6.0 | 0.00 | 0.00 | 0.00 | 62 | 1011.9 |
| 20260506232225 | 51 | 87 | 2.0 | 4.0 | 0.00 | 0.00 | 0.00 | 64 | 1011.9 |
| 20260506232001 | 51 | 88 | 2.0 | 4.0 | 0.00 | 0.00 | 0.00 | 63 | 1011.9 |
| 20260506231725 | 51 | 88 | 2.0 | 4.0 | 0.00 | 0.00 | 0.00 | 61 | 1011.8 |
| 20260506231501 | 51 | 90 | 2.0 | 6.0 | 0.00 | 0.00 | 0.00 | 60 | 1011.8 |
| 20260506231225 | 51 | 95 | 3.0 | 6.0 | 0.00 | 0.00 | 0.00 | 61 | 1011.9 |
| 20260506231000 | 51 | 98 | 3.0 | 6.0 | 0.00 | 0.00 | 0.00 | 63 | 1011.9 |
| 20260506230725 | 51 | 100 | 3.0 | 6.0 | 0.00 | 0.00 | 0.00 | 61 | 1011.9 |
| 20260506230501 | 52 | 101 | 3.0 | 6.0 | 0.00 | 0.00 | 0.00 | 61 | 1011.9 |
| 20260506230225 | 52 | 99 | 3.0 | 6.0 | 0.00 | 0.00 | 0.00 | 63 | 1012.0 |
| 20260506230001 | 52 | 99 | 3.0 | 6.0 | 0.00 | 0.00 | 0.00 | 63 | 1012.1 |
| 20260506225725 | 52 | 98 | 2.0 | 6.0 | 0.00 | 0.00 | 0.00 | 62 | 1012.1 |
| 20260506225500 | 52 | 98 | 2.0 | 6.0 | 0.00 | 0.00 | 0.00 | 64 | 1012.1 |
| 20260506225225 | 52 | 96 | 3.0 | 6.0 | 0.00 | 0.00 | 0.00 | 63 | 1012.0 |
| 20260506225001 | 52 | 94 | 3.0 | 6.0 | 0.00 | 0.00 | 0.00 | 64 | 1012.0 |
| 20260506224725 | 52 | 93 | 3.0 | 6.0 | 0.00 | 0.00 | 0.00 | 64 | 1011.9 |
| 20260506224501 | 52 | 92 | 2.0 | 6.0 | 0.00 | 0.00 | 0.00 | 63 | 1011.9 |
| 20260506224225 | 52 | 91 | 2.0 | 4.0 | 0.00 | 0.00 | 0.00 | 62 | 1012.0 |
| 20260506224001 | 52 | 92 | 1.0 | 4.0 | 0.00 | 0.00 | 0.00 | 63 | 1011.9 |
| 20260506223725 | 52 | 92 | 1.0 | 3.0 | 0.00 | 0.00 | 0.00 | 62 | 1012.1 |
| 20260506223501 | 52 | 92 | 2.0 | 3.0 | 0.00 | 0.00 | 0.00 | 62 | 1012.1 |
| 20260506223224 | 52 | 92 | 2.0 | 4.0 | 0.00 | 0.00 | 0.00 | 61 | 1011.9 |
| 20260506223000 | 52 | 92 | 2.0 | 4.0 | 0.00 | 0.00 | 0.00 | 61 | 1012.0 |
| 20260506222724 | 52 | 92 | 2.0 | 4.0 | 0.00 | 0.00 | 0.00 | 63 | 1012.1 |
| 20260506222501 | 52 | 92 | 2.0 | 4.0 | 0.00 | 0.00 | 0.00 | 62 | 1012.0 |
| 20260506222224 | 52 | 115 | 2.0 | 6.0 | 0.00 | 0.00 | 0.00 | 62 | 1012.1 |
| 20260506222001 | 52 | 132 | 2.0 | 6.0 | 0.00 | 0.00 | 0.00 | 61 | 1012.1 |
| 20260506221724 | 52 | 154 | 2.0 | 6.0 | 0.00 | 0.00 | 0.00 | 61 | 1012.1 |
| 20260506221501 | 52 | 181 | 2.0 | 6.0 | 0.00 | 0.00 | 0.00 | 62 | 1012.0 |
| 20260506221224 | 52 | 183 | 1.0 | 5.0 | 0.00 | 0.00 | 0.00 | 61 | 1012.1 |
| 20260506221001 | 52 | 172 | 1.0 | 5.0 | 0.00 | 0.00 | 0.00 | 60 | 1012.1 |
| 20260506220724 | 52 | 148 | 2.0 | 5.0 | 0.00 | 0.00 | 0.00 | 61 | 1012.1 |
| 20260506220501 | 52 | 136 | 2.0 | 5.0 | 0.00 | 0.00 | 0.00 | 61 | 1012.0 |
| 20260506220224 | 51 | 123 | 2.0 | 4.0 | 0.00 | 0.00 | 0.00 | 62 | 1012.0 |
| 20260506220001 | 51 | 123 | 2.0 | 4.0 | 0.00 | 0.00 | 0.00 | 61 | 1012.0 |
| 20260506215724 | 51 | 123 | 1.0 | 4.0 | 0.00 | 0.00 | 0.00 | 62 | 1012.0 |
| 20260506215500 | 51 | 123 | 2.0 | 4.0 | 0.00 | 0.00 | 0.00 | 63 | 1012.0 |
| 20260506215224 | 51 | 120 | 2.0 | 6.0 | 0.00 | 0.00 | 0.00 | 63 | 1012.0 |
| 20260506215021 | 51 | 119 | 2.0 | 6.0 | 0.00 | 0.00 | 0.00 | 64 | 1012.0 |
| 20260506214724 | 51 | 118 | 2.0 | 6.0 | 0.00 | 0.00 | 0.00 | 63 | 1011.9 |
| 20260506214501 | 51 | 117 | 2.0 | 6.0 | 0.00 | 0.00 | 0.00 | 62 | 1011.9 |
| 20260506214224 | 51 | 116 | 2.0 | 3.0 | 0.00 | 0.00 | 0.00 | 61 | 1012.0 |
| 20260506214001 | 51 | 116 | 2.0 | 4.0 | 0.00 | 0.00 | 0.00 | 62 | 1012.0 |
| 20260506213724 | 51 | 116 | 2.0 | 4.0 | 0.00 | 0.00 | 0.00 | 62 | 1012.0 |
| 20260506213500 | 51 | 119 | 2.0 | 4.0 | 0.00 | 0.00 | 0.00 | 63 | 1011.9 |
| 20260506213224 | 51 | 123 | 2.0 | 4.0 | 0.00 | 0.00 | 0.00 | 63 | 1011.9 |
| 20260506213001 | 51 | 122 | 1.0 | 4.0 | 0.00 | 0.00 | 0.00 | 63 | 1011.9 |
| 20260506212723 | 51 | 110 | 2.0 | 4.0 | 0.00 | 0.00 | 0.00 | 64 | 1011.9 |
| 20260506212501 | 51 | 100 | 2.0 | 4.0 | 0.00 | 0.00 | 0.00 | 65 | 1011.9 |
| 20260506212223 | 51 | 89 | 2.0 | 4.0 | 0.00 | 0.00 | 0.00 | 66 | 1011.9 |
| 20260506212022 | 51 | 88 | 2.0 | 4.0 | 0.00 | 0.00 | 0.00 | 65 | 1011.8 |
| 20260506211723 | 51 | 88 | 2.0 | 4.0 | 0.00 | 0.00 | 0.00 | 64 | 1011.8 |
| 20260506211521 | 51 | 88 | 2.0 | 4.0 | 0.00 | 0.00 | 0.00 | 62 | 1011.8 |
| 20260506211223 | 51 | 88 | 2.0 | 4.0 | 0.00 | 0.00 | 0.00 | 61 | 1011.9 |
| 20260506211002 | 51 | 88 | 2.0 | 4.0 | 0.00 | 0.00 | 0.00 | 62 | 1011.9 |
| 20260506210723 | 51 | 87 | 2.0 | 4.0 | 0.00 | 0.00 | 0.00 | 63 | 1011.9 |
| 20260506210501 | 51 | 87 | 2.0 | 4.0 | 0.00 | 0.00 | 0.00 | 62 | 1011.9 |
| 20260506210223 | 51 | 88 | 2.0 | 3.0 | 0.00 | 0.00 | 0.00 | 62 | 1011.9 |
| 20260506210022 | 51 | 88 | 2.0 | 4.0 | 0.00 | 0.00 | 0.00 | 63 | 1011.9 |
| 20260506205723 | 51 | 85 | 2.0 | 6.0 | 0.00 | 0.00 | 0.00 | 62 | 1011.9 |
| 20260506205501 | 51 | 83 | 2.0 | 6.0 | 0.00 | 0.00 | 0.00 | 60 | 1011.8 |
| 20260506205223 | 51 | 73 | 2.0 | 6.0 | 0.00 | 0.00 | 0.00 | 62 | 1011.9 |
| 20260506205001 | 51 | 68 | 2.0 | 6.0 | 0.00 | 0.00 | 0.00 | 62 | 1011.8 |
| 20260506204723 | 52 | 65 | 2.0 | 5.0 | 0.00 | 0.00 | 0.00 | 60 | 1011.8 |
| 20260506204500 | 52 | 68 | 2.0 | 5.0 | 0.00 | 0.00 | 0.00 | 60 | 1011.8 |
| 20260506204223 | 52 | 78 | 2.0 | 6.0 | 0.00 | 0.00 | 0.00 | 63 | 1011.8 |
| 20260506204001 | 52 | 78 | 2.0 | 6.0 | 0.00 | 0.00 | 0.00 | 63 | 1011.7 |
| 20260506203723 | 52 | 78 | 3.0 | 7.0 | 0.00 | 0.00 | 0.00 | 63 | 1011.8 |
| 20260506203501 | 52 | 80 | 3.0 | 7.0 | 0.00 | 0.00 | 0.00 | 63 | 1011.7 |
| 20260506203223 | 52 | 82 | 3.0 | 7.0 | 0.00 | 0.00 | 0.00 | 62 | 1011.8 |
| 20260506203021 | 52 | 88 | 3.0 | 7.0 | 0.00 | 0.00 | 0.00 | 62 | 1011.8 |
| 20260506202723 | 52 | 91 | 3.0 | 6.0 | 0.00 | 0.00 | 0.00 | 61 | 1011.9 |
| 20260506202501 | 53 | 88 | 3.0 | 6.0 | 0.00 | 0.00 | 0.00 | 60 | 1011.9 |
| 20260506202222 | 53 | 79 | 3.0 | 5.0 | 0.00 | 0.00 | 0.00 | 60 | 1011.9 |
| 20260506202001 | 53 | 63 | 3.0 | 6.0 | 0.00 | 0.00 | 0.00 | 63 | 1012.0 |
| 20260506201722 | 53 | 60 | 3.0 | 6.0 | 0.00 | 0.00 | 0.00 | 61 | 1012.0 |
| 20260506201501 | 53 | 63 | 3.0 | 7.0 | 0.00 | 0.00 | 0.00 | 61 | 1011.9 |
| 20260506201222 | 54 | 46 | 3.0 | 7.0 | 0.00 | 0.00 | 0.00 | 59 | 1012.0 |
| 20260506201001 | 54 | 26 | 3.0 | 10.0 | 0.00 | 0.00 | 0.00 | 58 | 1012.0 |
| 20260506200722 | 55 | 319 | 4.0 | 12.0 | 0.00 | 0.00 | 0.00 | 55 | 1012.0 |
| 20260506200501 | 55 | 309 | 4.0 | 12.0 | 0.00 | 0.00 | 0.00 | 54 | 1012.0 |
| 20260506200222 | 55 | 298 | 5.0 | 12.0 | 0.00 | 0.00 | 0.00 | 47 | 1011.9 |
| 20260506200002 | 55 | 296 | 6.0 | 12.0 | 0.00 | 0.00 | 0.00 | 48 | 1011.8 |
| 20260506195722 | 55 | 297 | 6.0 | 14.0 | 0.00 | 0.00 | 0.00 | 47 | 1011.8 |
| 20260506195501 | 55 | 290 | 7.0 | 14.0 | 0.00 | 0.00 | 0.00 | 49 | 1011.8 |
| 20260506195222 | 55 | 290 | 7.0 | 14.0 | 0.00 | 0.00 | 0.00 | 49 | 1011.9 |
| 20260506195001 | 55 | 288 | 7.0 | 14.0 | 0.00 | 0.00 | 0.00 | 48 | 1012.0 |
| 20260506194722 | 55 | 286 | 6.0 | 12.0 | 0.00 | 0.00 | 0.00 | 49 | 1011.9 |
| 20260506194501 | 55 | 283 | 6.0 | 11.0 | 0.00 | 0.00 | 0.00 | 49 | 1012.0 |
| 20260506194222 | 55 | 290 | 6.0 | 12.0 | 0.00 | 0.00 | 0.00 | 51 | 1011.9 |
| 20260506194001 | 54 | 298 | 6.0 | 12.0 | 0.00 | 0.00 | 0.00 | 49 | 1011.9 |
| 20260506193722 | 54 | 309 | 6.0 | 12.0 | 0.00 | 0.00 | 0.00 | 50 | 1011.9 |
| 20260506193501 | 54 | 319 | 6.0 | 12.0 | 0.00 | 0.00 | 0.00 | 49 | 1011.9 |
| 20260506193222 | 54 | 326 | 5.0 | 11.0 | 0.00 | 0.00 | 0.00 | 47 | 1011.9 |